This is the latest recevied weather packets stored in our database for station/object VE8SKI. If no packets are shown the sender has not sent any weather packets the latest 10 day(s).
| Time | Temp. | Humidity | Pressure | Rain* | Wind** | Luminosity | Snow |
|---|---|---|---|---|---|---|---|
| 1777392613 | -2.22° C | 74% | 1019.2 hPa | 0 mm | 0 m/s | - | - |
| 1777392313 | -2.22° C | 74% | 1019.4 hPa | 0 mm | 1.79 m/s, 293° | - | - |
| 1777392014 | -2.22° C | 74% | 1019.6 hPa | 0 mm | 0.89 m/s, 221° | - | - |
| 1777391714 | -2.22° C | 74% | 1019.6 hPa | 0 mm | 1.79 m/s, 274° | - | - |
| 1777391412 | -2.22° C | 74% | 1019.7 hPa | 0 mm | 1.34 m/s, 359° | - | - |
| 1777391112 | -2.22° C | 74% | 1019.7 hPa | 0 mm | 0 m/s | - | - |
| 1777390812 | -2.22° C | 74% | 1019.8 hPa | 0 mm | 1.34 m/s, 359° | - | - |
| 1777390513 | -2.78° C | 75% | 1019.8 hPa | 0 mm | 1.34 m/s, 253° | - | - |
| 1777390213 | -2.78° C | 75% | 1019.9 hPa | 0 mm | 1.34 m/s, 291° | - | - |
| 1777389914 | -2.78° C | 75% | 1020 hPa | 0 mm | 1.79 m/s, 218° | - | - |
| 1777389611 | -2.78° C | 75% | 1020.1 hPa | 0 mm | 1.79 m/s, 274° | - | - |
| 1777389312 | -2.78° C | 75% | 1020.2 hPa | 0 mm | 0.89 m/s, 217° | - | - |
| 1777389012 | -2.78° C | 75% | 1020.4 hPa | 0 mm | 1.34 m/s, 243° | - | - |
| 1777388712 | -2.78° C | 75% | 1020.5 hPa | 0 mm | 1.79 m/s, 212° | - | - |
| 1777388413 | -3.33° C | 75% | 1020.7 hPa | 0 mm | 1.79 m/s, 290° | - | - |
| 1777388113 | -3.33° C | 75% | 1020.8 hPa | 0 mm | 0.89 m/s, 229° | - | - |
| 1777387811 | -3.33° C | 75% | 1020.8 hPa | 0 mm | 0 m/s | - | - |
| 1777387511 | -3.33° C | 73% | 1021 hPa | 0 mm | 0 m/s | - | - |
| 1777387211 | -3.33° C | 75% | 1021.3 hPa | 0 mm | 0 m/s | - | - |
| 1777386912 | -3.89° C | 77% | 1021.3 hPa | 0 mm | 0 m/s | - | - |
| 1777386612 | -4.44° C | 77% | 1021.5 hPa | 0 mm | 0 m/s | - | - |
| 1777386312 | -4.44° C | 78% | 1021.6 hPa | 0 mm | 0 m/s | - | - |
| 1777386010 | -4.44° C | 81% | 1021.7 hPa | 0 mm | 0 m/s | - | - |
| 1777385710 | -5° C | 83% | 1021.8 hPa | 0 mm | 0 m/s | - | - |
| 1777385410 | -5.56° C | 83% | 1022 hPa | 0 mm | 0 m/s | - | - |
* Rain latest hour (hover to see other rain measurements)
** Current wind speed in m/s (hover to see current wind gust speed)